Wind_Speed
6 6 5 3 3 2 3 3 2 2 2 2 3 4 4 4 4 4 4 5 6 7 9 11 11 13 11 10 13 19 16 13 11 10 8 9 7 7 7 8 7 7 2 3 4
9 9 8 6 4 3 3 2 3 3 2 2 3 4 4 4 4 3 4 6 5 8 11 14 14 13 11 11 10 14 10 9 7 9 10 4 4 7 8 7 5 6 4 1 1
11 11 10 9 7 5 5 4 4 3 3 2 2 3 4 4 5 4 4 4 6 6 8 15 16 14 12 10 7 10 7 5 5 8 9 7 6 6 5 2 3 3 4 4 1
13 12 11 10 9 8 8 7 5 5 4 3 3 3 3 3 5 5 6 5 6 6 8 13 16 15 14 10 8 7 4 2 4 8 8 7 6 7 7 4 5 4 5 5 1
15 14 13 12 11 11 10 9 8 7 5 4 3 3 4 3 4 6 5 6 7 8 9 12 17 14 13 12 9 9 7 4 4 6 8 10 7 8 8 8 7 7 6 2 4
16 16 15 14 13 13 12 11 10 8 7 5 4 4 4 5 5 7 5 5 6 9 10 12 19 18 15 13 13 12 9 8 7 8 12 15 13 11 10 9 7 7 6 6 2
17 17 17 16 15 14 14 13 12 10 9 8 5 5 5 6 5 8 7 6 5 7 10 12 17 21 17 16 18 17 14 9 11 12 7 12 14 12 10 9 8 7 7 9 0
17 18 18 17 16 16 16 14 14 12 11 9 7 7 7 7 8 7 7 7 7 7 8 10 12 16 16 16 14 15 14 10 4 5 10 11 7 8 9 9 6 5 9 10 8
18 18 18 18 17 18 18 16 15 13 12 11 9 8 9 9 10 11 9 9 9 9 9 9 11 11 9 11 14 14 10 10 5 4 11 9 7 5 8 4 7 4 9 12 14
18 18 18 17 17 18 19 15 15 14 13 12 11 10 11 10 11 12 11 10 11 11 10 10 10 9 9 9 7 11 14 13 6 8 9 7 8 4 4 5 7 4 8 13 16
19 19 18 16 16 18 19 14 15 15 14 13 6 14 9 13 10 12 13 13 13 12 12 12 11 9 3 7 10 9 10 7 4 4 9 8 9 7 4 5 6 6 7 13 17
18 19 18 16 16 17 17 14 14 14 12 13 15 15 12 12 12 14 14 14 15 15 14 14 12 8 9 6 8 12 9 5 7 7 8 7 6 5 3 5 6 8 11 15 15
17 17 16 15 15 16 14 13 12 12 13 11 13 15 19 16 15 15 13 11 12 13 14 14 9 9 13 11 9 8 8 4 6 9 7 3 1 5 6 10 11 12 12 13 16
16 15 14 14 14 14 12 11 10 9 5 5 11 15 18 21 19 16 15 12 13 12 11 12 15 10 12 10 8 6 4 2 6 5 3 3 4 6 6 6 5 8 8 8 10
16 15 14 15 13 12 11 9 8 4 1 4 9 10 14 21 13 20 18 16 12 10 15 5 6 16 15 9 10 6 5 3 6 6 6 6 4 6 6 5 7 4 5 8 9
17 15 16 15 14 13 11 8 7 4 5 5 7 8 10 20 18 14 26 20 14 11 11 11 9 12 16 13 11 11 6 6 6 5 6 9 6 7 10 9 7 5 5 9 9
17 16 16 16 16 15 13 12 7 6 6 6 8 9 11 17 22 14 23 25 19 15 16 14 17 18 15 16 18 13 7 3 3 4 5 7 4 5 7 9 9 4 7 10 8
18 17 16 18 18 18 17 17 9 7 9 9 7 7 7 11 22 18 13 21 23 15 6 5 4 9 14 23 19 20 15 7 3 3 1 6 5 7 9 10 8 6 8 9 9
16 16 18 19 19 19 21 21 11 14 12 13 7 4 8 10 6 25 18 17 17 15 9 5 2 5 2 5 19 13 15 12 8 5 4 5 10 13 8 5 2 3 8 7 9
14 16 18 20 20 21 24 25 19 13 12 7 12 7 8 10 12 14 11 8 22 22 15 8 6 6 4 7 13 8 10 4 7 4 5 3 7 6 6 2 1 8 5 9 8
12 14 18 19 20 23 28 26 25 17 14 13 8 9 8 9 14 18 11 6 5 10 20 21 14 9 6 7 11 12 12 7 5 5 4 3 4 4 8 7 10 11 3 11 16
11 14 16 18 22 26 30 23 23 23 16 15 12 11 9 9 9 12 13 11 10 8 9 12 9 10 10 12 15 7 9 10 6 5 7 5 11 11 13 10 6 9 8 12 19
9 13 13 17 22 26 27 29 21 20 17 21 15 15 14 10 7 10 11 13 9 5 5 10 11 5 2 7 11 17 12 16 15 11 10 6 10 12 10 7 10 10 9 12 13
8 9 13 17 21 22 23 21 23 22 21 19 14 14 14 16 13 10 11 11 10 7 5 4 9 11 10 5 8 4 14 16 13 5 5 8 8 6 8 9 9 10 9 11 12
8 10 13 17 17 14 16 15 21 17 18 17 17 19 18 14 18 15 12 14 11 7 7 6 6 9 10 11 11 11 10 10 8 8 9 7 6 2 6 11 15 9 13 12 10
7 10 12 16 20 15 15 14 14 15 15 14 13 14 17 17 17 15 18 16 12 11 8 8 5 7 9 8 8 9 14 20 18 12 12 10 7 8 7 11 13 13 11 13 11
6 10 13 14 16 17 16 14 13 12 11 13 15 16 14 15 16 19 19 19 11 13 12 9 10 9 9 9 7 7 12 13 15 13 12 11 6 7 9 11 9 10 12 11 12
Wind_Direction
237 242 250 225 223 161 174 170 165 155 172 167 152 144 141 140 131 120 122 114 153 176 183 177 171 163 169 147 112 125 116 99 73 51 32 25 18 351 341 322 349 335 2 79 74
243 245 244 245 250 245 220 199 206 205 186 196 177 180 175 177 163 142 140 109 131 166 176 172 171 174 178 161 135 132 114 90 75 27 30 51 17 339 342 339 333 315 299 252 67
242 244 247 250 252 257 262 240 240 229 216 209 190 193 189 186 185 172 171 135 120 151 177 173 173 174 179 174 154 145 133 105 64 23 32 39 30 18 354 359 291 295 282 250 286
240 240 243 251 255 259 263 258 251 248 234 224 206 207 203 181 184 188 185 178 143 147 169 181 177 180 183 196 188 184 199 175 30 16 9 15 4 360 0 336 294 253 248 243 86
241 242 241 244 252 260 261 262 261 254 243 238 223 214 208 196 180 177 176 187 169 149 160 177 185 192 195 203 212 226 224 259 333 339 333 323 334 334 345 341 288 251 251 227 181
243 242 243 245 247 252 260 266 264 261 256 246 235 226 218 217 201 200 202 195 190 162 165 177 188 196 209 207 226 232 240 252 276 302 309 306 303 295 319 314 316 270 238 185 66
248 247 244 246 248 251 254 258 262 261 257 254 243 234 224 227 206 206 218 211 207 195 184 190 192 198 204 215 230 242 254 270 291 312 343 320 298 282 289 304 333 280 235 220 13
252 252 249 249 250 252 253 254 256 257 255 253 246 235 233 225 217 210 206 214 214 216 213 209 206 209 216 223 238 250 263 276 260 338 347 350 355 269 279 297 335 316 259 250 239
253 253 254 255 252 252 251 254 255 254 252 252 247 240 239 223 216 217 216 213 214 219 218 222 216 218 226 239 247 258 257 267 294 308 342 352 8 307 289 293 354 323 266 265 245
251 252 253 254 256 255 253 254 255 253 248 247 244 239 233 218 217 217 224 217 214 221 222 225 232 231 237 242 239 240 259 259 265 337 10 9 17 7 342 279 304 288 266 259 245
247 249 250 252 254 257 258 256 256 255 246 238 218 222 226 220 215 216 218 218 216 215 221 227 235 234 267 230 212 215 231 234 243 334 348 5 352 2 354 307 278 284 266 247 244
246 247 247 247 250 253 256 256 256 258 250 240 229 222 222 219 210 211 212 216 217 217 219 232 243 254 236 223 223 231 238 236 287 293 334 350 321 323 279 292 296 291 267 238 251
246 246 247 244 245 249 252 251 256 256 259 236 231 219 219 222 214 221 218 222 227 227 231 239 254 256 233 229 231 235 234 288 325 314 313 333 354 348 329 306 286 277 269 240 240
244 243 242 242 239 243 244 244 255 262 259 217 212 221 211 219 223 218 216 221 226 226 228 249 238 235 198 207 205 206 171 297 326 325 280 297 290 315 318 328 297 279 275 238 221
242 239 236 236 234 234 235 236 247 233 282 215 200 199 200 202 215 213 209 216 223 223 213 226 235 216 216 226 201 193 224 300 307 289 294 277 257 276 293 316 353 310 234 202 210
243 234 233 228 229 226 226 219 228 210 242 177 181 186 188 195 197 197 204 205 210 212 221 212 216 217 225 218 204 222 257 295 271 253 260 257 234 266 260 273 323 326 261 215 218
245 232 229 223 221 219 214 200 198 209 198 180 185 194 187 194 196 200 198 206 206 206 231 243 238 240 227 231 232 225 236 256 210 202 249 233 238 256 279 286 287 288 226 232 225
244 237 225 223 215 211 204 195 205 216 194 184 169 213 192 184 202 196 193 207 212 209 197 226 258 231 235 233 240 234 225 215 240 213 1 221 242 264 296 309 288 256 251 251 226
247 235 226 223 215 207 199 197 212 219 213 210 205 178 185 194 194 206 214 227 223 218 215 237 235 131 351 233 218 215 198 218 223 241 253 244 265 282 292 310 296 254 265 268 211
247 235 225 221 217 204 202 211 214 210 203 195 208 195 180 189 187 190 194 228 239 236 251 245 255 274 327 212 184 205 202 204 208 189 227 231 271 290 303 324 265 321 304 221 197
243 230 225 220 213 204 206 214 216 215 207 207 196 189 171 159 185 192 199 192 192 210 222 238 244 251 238 216 219 228 225 217 204 215 240 234 240 332 343 303 281 298 276 227 225
239 226 221 215 206 209 212 216 217 222 217 214 207 194 181 169 168 176 187 184 184 202 206 213 220 239 254 246 246 236 243 217 227 221 224 247 258 275 315 307 295 282 255 237 227
240 227 213 204 205 209 213 215 216 222 222 228 224 222 216 208 189 182 169 178 169 173 183 201 216 242 252 227 243 250 250 238 240 238 236 240 268 283 294 289 304 281 267 262 243
235 214 203 195 209 213 211 214 217 223 225 225 215 224 227 222 210 199 187 184 191 194 187 199 221 234 254 233 174 218 229 216 211 194 224 242 286 271 284 285 282 294 257 262 259
235 221 208 203 205 202 203 210 219 220 228 234 237 233 231 227 218 215 218 202 203 202 202 202 224 251 260 249 237 224 203 190 216 279 245 274 304 261 274 296 287 264 252 252 263
251 222 219 219 211 193 186 190 200 207 220 213 216 226 230 228 224 220 225 231 225 223 218 216 228 237 246 244 245 242 229 229 249 255 247 247 268 277 281 304 302 255 236 241 254
257 242 224 223 227 220 223 217 218 210 211 215 221 219 219 217 218 220 222 217 210 205 202 211 225 222 236 230 224 233 236 228 237 234 228 237 253 269 277 278 297 265 226 219 246
Height
3167 3168 3169 3170 3171 3170 3172 3172 3173 3174 3174 3175 3175 3175 3175 3176 3176 3176 3176 3177 3176 3176 3176 3178 3181 3183 3186 3190 3190 3191 3194 3194 3195 3195 3195 3193 3193 3192 3193 3193 3191 3190 3190 3189 3188
3165 3167 3168 3169 3169 3170 3171 3172 3172 3173 3173 3174 3175 3175 3175 3176 3177 3176 3177 3176 3177 3176 3176 3178 3181 3183 3186 3189 3191 3193 3194 3195 3195 3195 3194 3194 3193 3192 3193 3192 3191 3190 3190 3190 3188
3164 3165 3166 3167 3168 3168 3170 3171 3172 3172 3173 3174 3174 3175 3175 3175 3177 3176 3176 3177 3178 3177 3178 3179 3182 3185 3187 3189 3192 3193 3194 3194 3195 3194 3194 3194 3194 3192 3191 3191 3190 3190 3189 3190 3190
3162 3163 3164 3164 3166 3167 3169 3170 3171 3171 3172 3172 3173 3174 3174 3175 3178 3176 3177 3177 3179 3178 3179 3180 3183 3185 3187 3189 3191 3193 3193 3193 3194 3194 3194 3194 3194 3193 3191 3191 3189 3188 3188 3190 3192
3160 3161 3162 3163 3164 3164 3167 3168 3169 3170 3170 3171 3172 3173 3174 3175 3175 3175 3176 3177 3178 3179 3179 3180 3183 3184 3186 3188 3190 3191 3192 3192 3193 3193 3194 3193 3192 3192 3191 3190 3189 3188 3189 3191 3191
3158 3159 3160 3160 3162 3163 3163 3165 3167 3167 3168 3169 3170 3171 3173 3174 3174 3175 3176 3176 3177 3179 3179 3180 3181 3183 3185 3187 3189 3190 3191 3192 3193 3192 3192 3191 3190 3190 3190 3188 3188 3188 3189 3190 3190
3154 3156 3157 3158 3159 3160 3161 3163 3164 3165 3166 3168 3169 3170 3171 3173 3173 3174 3175 3176 3176 3177 3179 3180 3180 3183 3185 3187 3188 3189 3191 3192 3192 3192 3191 3188 3186 3186 3187 3186 3187 3187 3187 3188 3189
3151 3153 3154 3155 3156 3157 3158 3160 3161 3163 3164 3165 3167 3168 3169 3170 3171 3172 3174 3175 3176 3177 3178 3179 3180 3182 3184 3186 3188 3189 3190 3191 3191 3191 3190 3188 3186 3184 3184 3185 3186 3185 3186 3186 3187
3147 3149 3150 3152 3153 3154 3155 3157 3159 3160 3161 3163 3165 3166 3167 3168 3169 3170 3172 3173 3175 3176 3177 3179 3180 3182 3184 3185 3187 3187 3188 3189 3190 3190 3189 3187 3185 3184 3183 3184 3185 3184 3184 3184 3186
3143 3145 3146 3148 3150 3151 3152 3154 3156 3158 3159 3161 3162 3166 3165 3165 3167 3168 3170 3172 3174 3175 3177 3178 3179 3181 3182 3184 3186 3186 3185 3187 3189 3190 3187 3185 3184 3182 3183 3182 3182 3182 3182 3183 3184
3139 3141 3142 3144 3146 3146 3149 3152 3156 3156 3156 3158 3160 3160 3161 3163 3165 3166 3168 3170 3172 3174 3175 3176 3179 3180 3181 3182 3183 3184 3184 3186 3188 3188 3186 3184 3183 3182 3181 3180 3179 3179 3179 3181 3180
3135 3137 3138 3140 3142 3143 3146 3148 3150 3152 3153 3153 3155 3158 3158 3161 3163 3163 3166 3169 3170 3172 3174 3176 3176 3179 3179 3181 3182 3183 3184 3186 3186 3185 3186 3183 3182 3181 3180 3179 3177 3176 3176 3178 3178
3131 3133 3135 3136 3138 3140 3143 3146 3146 3147 3149 3150 3151 3153 3156 3159 3160 3162 3165 3167 3169 3171 3172 3173 3175 3175 3177 3179 3181 3183 3183 3184 3185 3184 3184 3183 3182 3180 3179 3177 3175 3173 3173 3172 3175
3127 3129 3131 3133 3137 3137 3140 3142 3143 3144 3146 3147 3147 3149 3152 3155 3158 3160 3163 3167 3167 3169 3171 3172 3172 3174 3175 3178 3180 3181 3182 3182 3183 3183 3183 3182 3181 3178 3176 3174 3172 3171 3170 3171 3172
3123 3125 3128 3130 3132 3134 3138 3139 3141 3144 3144 3146 3144 3145 3147 3152 3155 3157 3160 3163 3166 3167 3170 3171 3170 3172 3174 3176 3178 3180 3180 3181 3181 3181 3181 3180 3180 3176 3174 3172 3171 3169 3169 3170 3170
3119 3121 3124 3126 3129 3132 3134 3136 3140 3145 3141 3141 3141 3142 3145 3147 3151 3153 3156 3161 3164 3165 3167 3169 3169 3170 3173 3174 3177 3178 3179 3179 3179 3179 3179 3177 3178 3174 3172 3171 3170 3168 3168 3168 3168
3114 3117 3120 3122 3126 3128 3131 3135 3140 3138 3139 3140 3139 3140 3142 3144 3147 3150 3153 3156 3160 3163 3164 3166 3166 3168 3170 3172 3173 3176 3177 3179 3179 3178 3175 3174 3176 3172 3170 3169 3168 3167 3167 3166 3167
3109 3112 3115 3117 3121 3124 3128 3133 3134 3133 3134 3135 3137 3138 3140 3143 3146 3149 3152 3154 3156 3159 3162 3164 3164 3163 3165 3167 3170 3171 3174 3175 3175 3174 3174 3173 3172 3169 3168 3167 3165 3165 3164 3165 3166
3105 3107 3110 3113 3116 3120 3125 3127 3128 3130 3132 3133 3135 3137 3138 3140 3143 3146 3150 3152 3154 3157 3162 3161 3161 3162 3163 3163 3166 3168 3169 3172 3172 3173 3174 3171 3169 3167 3166 3165 3163 3163 3163 3164 3165
3100 3103 3106 3109 3112 3117 3120 3121 3124 3127 3129 3131 3133 3135 3136 3138 3142 3144 3147 3148 3151 3154 3158 3159 3161 3160 3161 3162 3163 3166 3168 3170 3170 3171 3170 3167 3166 3165 3164 3164 3163 3162 3162 3162 3162
3097 3099 3101 3104 3108 3112 3114 3117 3120 3123 3127 3129 3131 3132 3134 3136 3138 3141 3144 3147 3147 3148 3153 3156 3160 3160 3161 3162 3163 3164 3164 3166 3167 3167 3163 3164 3164 3163 3163 3162 3161 3161 3161 3160 3160
3093 3095 3096 3100 3105 3106 3109 3112 3116 3120 3124 3126 3128 3130 3132 3134 3137 3139 3141 3143 3146 3148 3150 3153 3154 3154 3156 3157 3160 3161 3162 3163 3163 3164 3163 3163 3162 3161 3161 3160 3159 3159 3159 3158 3158
3090 3091 3093 3096 3099 3101 3104 3109 3113 3117 3120 3122 3125 3127 3129 3133 3137 3137 3139 3141 3143 3145 3146 3148 3150 3152 3152 3156 3157 3158 3158 3159 3160 3159 3159 3160 3159 3157 3158 3157 3157 3156 3157 3156 3159
3089 3090 3091 3093 3095 3098 3102 3106 3110 3112 3115 3118 3121 3124 3126 3129 3132 3135 3137 3139 3141 3143 3144 3146 3147 3147 3148 3150 3152 3153 3153 3154 3156 3156 3156 3156 3155 3154 3155 3154 3154 3153 3153 3154 3157
3086 3088 3089 3091 3094 3096 3100 3103 3106 3109 3112 3114 3117 3120 3123 3127 3129 3132 3134 3136 3138 3140 3141 3143 3144 3145 3145 3146 3147 3150 3152 3153 3153 3154 3154 3153 3152 3152 3152 3151 3150 3150 3149 3151 3153
3084 3086 3088 3090 3092 3095 3097 3100 3103 3106 3109 3112 3115 3117 3120 3124 3127 3129 3130 3133 3135 3137 3139 3140 3142 3142 3143 3143 3144 3145 3147 3149 3149 3149 3150 3150 3150 3150 3149 3148 3146 3146 3145 3149 3151
3082 3083 3086 3087 3090 3093 3096 3098 3101 3104 3107 3109 3112 3115 3117 3120 3121 3124 3126 3129 3131 3134 3135 3138 3139 3140 3141 3142 3142 3144 3143 3144 3145 3145 3147 3147 3148 3147 3146 3145 3144 3143 3144 3148 3150